Regional Weather Roundup
Issued by NWS

Home | Current Version | Previous Version | Graphics & Text | Print | Product List | Glossary On
Versions: 1 2 3 4 5 6 7 8 9 10 11 12 13 14 15 16 17 18 19 20 21 22 23 24 25 26 27 28 29 30 31 32 33 34 35 36 37 38 39 40 41 42 43 44 45 46 47 48 49 50
000
ASUS44 KMEG 191410
RWRTN
TENNESSEE HOURLY STATE WEATHER ROUNDUP
NATIONAL WEATHER SERVICE MEMPHIS TN
900 AM CDT THU OCT 19 2017

TNZ002-004-019-021-049-052-054-088>092-191500-
WEST TENNESSEE

CITY           SKY/WX    TMP DP  RH WIND       PRES   REMARKS
MEMPHIS INTL   PTSUNNY   59  48  67 S8        30.27R
NWS MEMPHIS      N/A     54 N/A N/A MISG        N/A
JACKSON        SUNNY     56  51  84 CALM      30.29R
SOMERVILLE     SUNNY     57  48  72 VRB6      30.27R
COVINGTON      SUNNY     52  48  87 CALM      30.28R
UNION CITY     SUNNY     55  50  82 S7        30.27R
BOLIVAR        SUNNY     50  48  93 SE3       30.28R
PARIS          SUNNY     57  48  72 S7        30.27S
HUNTINGDON     SUNNY     55  50  82 S3        30.28R
LEXINGTON      SUNNY     50  48  93 CALM      30.30R
SELMER         SUNNY     57  48  72 S5        30.29R
SAVANNAH       SUNNY     55  50  82 VRB3      30.30R
$$

TNZ008-025-027-028-033-062-065-066-191500-
NORTH MIDDLE TENNESSEE

CITY           SKY/WX    TMP DP  RH WIND       PRES   REMARKS
NASHVILLE      SUNNY     55  48  77 S6        30.33R
PORTLAND       SUNNY     57  50  77 S9        30.31R HAZE
CLARKSVILLE    SUNNY     52  47  83 SE6       30.30R
SMYRNA         SUNNY     54  49  83 SE3       30.35R
COOKEVILLE     SUNNY     55  46  71 CALM      30.33R
GALLATIN       SUNNY     52  48  87 CALM      30.36R
CROSSVILLE     SUNNY     55  43  63 SW3       30.35R
$$

TNZ061-075-076-078-094-096-097-191500-
SOUTH MIDDLE TENNESSEE

CITY           SKY/WX    TMP DP  RH WIND       PRES   REMARKS
FAYETTEVILLE   SUNNY     57  48  72 SE6       30.32R
TULLAHOMA      SUNNY     55  46  71 CALM      30.33R
WINCHESTER     SUNNY     57  48  72 SE6         N/A
COLUMBIA       SUNNY     52  48  87 CALM      30.31R
SHELBYVILLE    SUNNY     57  48  72 VRB3      30.33R
$$

TNZ017-018-042-046-047-191500-
NORTHEAST TENNESSEE

CITY           SKY/WX    TMP DP  RH WIND       PRES   REMARKS
TRI CITIES     MOSUNNY   50  46  86 CALM      30.37S
ELIZABETHTON   SUNNY     52  43  71 VRB3      30.36F
$$

TNZ012-013-036-069-073-074-191500-
CENTRAL EAST TENNESSEE

CITY           SKY/WX    TMP DP  RH WIND       PRES   REMARKS
KNOXVILLE      MOSUNNY   51  50  96 NE5       30.36R
DOWNTOWN KNOXV FOG       48  48 100 CALM      30.38R VSB 0
GATLINBURG     FOG       48  48 100 CALM      30.36S VSB 1
MORRISTOWN     SUNNY     54  46  76 CALM      30.36R
JACKSBORO      FOG       48  48 100 CALM      30.40R VSB 1
$$

TNZ083-085-099-191500-
SOUTHEAST TENNESSEE

CITY           SKY/WX    TMP DP  RH WIND       PRES   REMARKS
CHATTANOOGA    MOSUNNY   53  47  79 CALM      30.36R
DAYTON         FOG       46  46 100 CALM      30.35R VSB 0
$$

SKY/WX REPORTED AS FAIR MEANS FEW OR NO CLOUDS BELOW
12 THOUSAND FEET.





USA.gov is the U.S. government's official web portal to all federal, state and local government web resources and services.